Location: Roland
(31.1349°N, 85.4372°W)
Time: 13:02:36
(UTC+00:00)

X-37B - Pass Details

Date: 12 March 2021
Orbit: 380 x 394 km, 45.0° (Epoch: 07 April)

Event Time Altitude Azimuth Distance (km) Brightness Sun altitude
Rises 01:22:12 0° 265° (W) 2,262 5.9 -21.0°
Reaches altitude 10° 01:24:35 10° 283° (WNW) 1,413 4.6 -21.5°
Maximum altitude 01:27:05 21° 334° (NNW) 944 2.9 -22.1°
Enters shadow 01:27:40 20° 350° (N) 976 2.8 -22.2°
